When you browse on this site, cookies collect data to enhance your experience and personalize the content and advertising you see.
Visit our Privacy Policy to learn more. By continuing to use the site, you agree to this use of cookies and data.
  • In Denmark
  • List of Countries
  • For 7 days
  • Water Temperature
  • Weather Map
  • Weather Widgets
  • user-avatar
    Login

    Hourly Weather Stobiecin

    Today, 17 September, Tuesday

    Time Temperature Precipitation Wind Pressure Humidity
    00:00 +8°C° 0 mm 4 mps 751 mmHg 78%
    01:00 +8°C° 0 mm 4 mps 751 mmHg 80%
    02:00 +8°C° 0 mm 4 mps 750 mmHg 82%
    03:00 +7°C° 0 mm 4 mps 750 mmHg 84%
    04:00 +7°C° 0 mm 4 mps 750 mmHg 86%
    05:00 +8°C° 0 mm 4 mps 750 mmHg 83%
    06:00 +9°C° 0 mm 5 mps 750 mmHg 79%
    07:00 +9°C° 0 mm 5 mps 750 mmHg 76%
    08:00 +11°C° 0 mm 6 mps 749 mmHg 70%
    09:00 +12°C° 0 mm 7 mps 749 mmHg 63%
    10:00 +13°C° 0 mm 8 mps 748 mmHg 57%
    11:00 +13°C° 0 mm 8 mps 748 mmHg 55%
    12:00 +13°C° 0 mm 8 mps 747 mmHg 54%
    13:00 +13°C° 0 mm 9 mps 747 mmHg 53%
    14:00 +13°C° 0.2 mm 9 mps 746 mmHg 56%
    15:00 +13°C° 0.2 mm 9 mps 746 mmHg 59%
    16:00 +12°C° 0.2 mm 9 mps 745 mmHg 61%
    17:00 +11°C° 1 mm 8 mps 745 mmHg 67%
    18:00 +10°C° 1 mm 7 mps 745 mmHg 73%
    19:00 +8°C° 1 mm 7 mps 745 mmHg 79%
    20:00 +8°C° 0.1 mm 7 mps 745 mmHg 79%
    21:00 +6°C° 0.1 mm 7 mps 745 mmHg 79%
    22:00 +6°C° 0.1 mm 8 mps 745 mmHg 78%
    23:00 +6°C° 0 mm 8 mps 745 mmHg 78%

    Tomorrow, 18 September, Wednesday

    Time Temperature Precipitation Wind Pressure Humidity
    00:00 +5°C° 0 mm 8 mps 745 mmHg 78%
    01:00 +5°C° 0 mm 8 mps 745 mmHg 78%
    02:00 +5°C° 0.1 mm 9 mps 745 mmHg 79%
    03:00 +5°C° 0.1 mm 9 mps 745 mmHg 80%
    04:00 +6°C° 0.1 mm 9 mps 746 mmHg 82%
    05:00 +6°C° 0.1 mm 9 mps 746 mmHg 79%
    06:00 +7°C° 0.1 mm 9 mps 747 mmHg 77%
    07:00 +8°C° 0.1 mm 10 mps 748 mmHg 75%
    08:00 +8°C° 0 mm 9 mps 749 mmHg 70%
    09:00 +10°C° 0 mm 9 mps 750 mmHg 65%
    10:00 +11°C° 0 mm 9 mps 751 mmHg 60%
    11:00 +12°C° 0 mm 9 mps 751 mmHg 57%
    12:00 +12°C° 0 mm 8 mps 751 mmHg 54%
    13:00 +13°C° 0 mm 8 mps 751 mmHg 51%
    14:00 +14°C° 0 mm 7 mps 752 mmHg 50%
    15:00 +14°C° 0 mm 7 mps 752 mmHg 49%
    16:00 +15°C° 0 mm 6 mps 753 mmHg 48%
    17:00 +13°C° 0 mm 5 mps 753 mmHg 52%
    18:00 +12°C° 0 mm 5 mps 753 mmHg 56%
    19:00 +11°C° 0 mm 4 mps 754 mmHg 60%
    20:00 +10°C° 0 mm 4 mps 754 mmHg 67%
    21:00 +8°C° 0 mm 4 mps 754 mmHg 73%
    22:00 +7°C° 0 mm 4 mps 755 mmHg 80%
    23:00 +7°C° 0.2 mm 4 mps 755 mmHg 82%

    Day after tomorrow, 19 September, Thursday

    Time Temperature Precipitation Wind Pressure Humidity
    00:00 +7°C° 0.2 mm 4 mps 755 mmHg 83%
    01:00 +7°C° 0.2 mm 4 mps 755 mmHg 85%
    02:00 +7°C° 0.1 mm 4 mps 755 mmHg 87%
    03:00 +6°C° 0.1 mm 4 mps 755 mmHg 89%
    04:00 +5°C° 0.1 mm 4 mps 755 mmHg 91%
    05:00 +6°C° 0 mm 4 mps 755 mmHg 88%
    06:00 +6°C° 0 mm 5 mps 756 mmHg 86%
    07:00 +7°C° 0 mm 5 mps 756 mmHg 83%
    08:00 +8°C° 0 mm 5 mps 756 mmHg 78%
    09:00 +10°C° 0 mm 5 mps 756 mmHg 72%
    10:00 +13°C° 0 mm 4 mps 757 mmHg 67%
    11:00 +14°C° 0.2 mm 5 mps 757 mmHg 60%
    12:00 +14°C° 0.2 mm 5 mps 757 mmHg 54%
    13:00 +15°C° 0.2 mm 5 mps 757 mmHg 47%
    14:00 +15°C° 0.2 mm 5 mps 757 mmHg 49%
    15:00 +14°C° 0.2 mm 5 mps 757 mmHg 50%
    16:00 +14°C° 0.2 mm 5 mps 757 mmHg 52%
    17:00 +12°C° 0 mm 4 mps 757 mmHg 58%
    18:00 +11°C° 0 mm 3 mps 758 mmHg 65%
    19:00 +9°C° 0 mm 3 mps 758 mmHg 72%
    20:00 +8°C° 0 mm 3 mps 759 mmHg 74%
    21:00 +7°C° 0 mm 2 mps 759 mmHg 76%
    22:00 +7°C° 0 mm 2 mps 759 mmHg 77%
    23:00 +7°C° 0 mm 2 mps 759 mmHg 78%

    20 September, Friday

    Time Temperature Precipitation Wind Pressure Humidity
    00:00 +6°C° 0 mm 2 mps 759 mmHg 78%
    01:00 +6°C° 0 mm 2 mps 759 mmHg 78%
    02:00 +6°C° 0 mm 2 mps 759 mmHg 79%
    03:00 +5°C° 0 mm 3 mps 759 mmHg 81%
    04:00 +5°C° 0 mm 3 mps 759 mmHg 83%
    05:00 +5°C° 0 mm 3 mps 759 mmHg 80%
    06:00 +6°C° 0 mm 4 mps 759 mmHg 77%
    07:00 +7°C° 0 mm 4 mps 759 mmHg 74%
    08:00 +9°C° 0 mm 5 mps 759 mmHg 68%
    09:00 +10°C° 0 mm 5 mps 759 mmHg 62%
    10:00 +13°C° 0 mm 5 mps 760 mmHg 56%
    11:00 +14°C° 0.1 mm 5 mps 759 mmHg 54%
    12:00 +14°C° 0.1 mm 5 mps 759 mmHg 53%
    13:00 +14°C° 0.1 mm 5 mps 759 mmHg 52%
    14:00 +14°C° 0.1 mm 4 mps 759 mmHg 53%
    15:00 +14°C° 0.1 mm 4 mps 759 mmHg 55%
    16:00 +14°C° 0.1 mm 4 mps 759 mmHg 57%
    17:00 +13°C° 0 mm 3 mps 759 mmHg 62%
    18:00 +12°C° 0 mm 3 mps 759 mmHg 67%
    19:00 +12°C° 0 mm 2 mps 759 mmHg 72%
    20:00 +10°C° 0 mm 2 mps 759 mmHg 73%
    21:00 +10°C° 0 mm 2 mps 759 mmHg 75%
    22:00 +10°C° 0 mm 2 mps 760 mmHg 76%
    23:00 +10°C° 0 mm 2 mps 760 mmHg 80%

    21 September, Saturday

    Time Temperature Precipitation Wind Pressure Humidity
    00:00 +10°C° 0 mm 2 mps 760 mmHg 83%
    01:00 +12°C° 0 mm 2 mps 760 mmHg 86%
    02:00 +12°C° 0 mm 2 mps 760 mmHg 88%
    03:00 +12°C° 0 mm 2 mps 760 mmHg 89%
    04:00 +12°C° 0 mm 2 mps 760 mmHg 91%
    05:00 +12°C° 0 mm 2 mps 760 mmHg 90%
    06:00 +12°C° 0 mm 2 mps 760 mmHg 89%
    07:00 +13°C° 0 mm 2 mps 760 mmHg 88%
    08:00 +14°C° 0 mm 2 mps 760 mmHg 83%
    09:00 +15°C° 0 mm 2 mps 760 mmHg 78%
    10:00 +16°C° 0 mm 2 mps 761 mmHg 72%
    11:00 +17°C° 0 mm 2 mps 760 mmHg 68%
    12:00 +17°C° 0 mm 2 mps 760 mmHg 64%
    13:00 +18°C° 0 mm 2 mps 760 mmHg 59%
    14:00 +18°C° 0 mm 2 mps 760 mmHg 60%
    15:00 +18°C° 0 mm 2 mps 760 mmHg 61%
    16:00 +18°C° 0 mm 2 mps 760 mmHg 62%
    17:00 +16°C° 0 mm 2 mps 760 mmHg 67%
    18:00 +15°C° 0 mm 1 mps 760 mmHg 72%
    19:00 +14°C° 0 mm 1 mps 760 mmHg 77%
    20:00 +13°C° 0 mm 1 mps 760 mmHg 79%
    21:00 +13°C° 0 mm 1 mps 760 mmHg 80%
    22:00 +13°C° 0 mm 1 mps 761 mmHg 81%
    23:00 +12°C° 0 mm 1 mps 761 mmHg 83%

    22 September, Sunday

    Time Temperature Precipitation Wind Pressure Humidity
    00:00 +12°C° 0 mm 1 mps 761 mmHg 85%
    01:00 +11°C° 0 mm 1 mps 761 mmHg 86%
    02:00 +11°C° 0 mm 1 mps 761 mmHg 86%
    03:00 +11°C° 0 mm 1 mps 761 mmHg 87%
    04:00 +11°C° 0 mm 1 mps 761 mmHg 87%
    05:00 +12°C° 0 mm 1 mps 761 mmHg 85%
    06:00 +12°C° 0 mm 1 mps 761 mmHg 82%
    07:00 +13°C° 0 mm 1 mps 761 mmHg 79%
    08:00 +15°C° 0 mm 1 mps 761 mmHg 72%
    09:00 +17°C° 0 mm 2 mps 761 mmHg 64%
    10:00 +19°C° 0 mm 2 mps 761 mmHg 57%
    11:00 +20°C° 0 mm 3 mps 761 mmHg 53%
    12:00 +21°C° 0 mm 3 mps 761 mmHg 49%
    13:00 +22°C° 0 mm 3 mps 760 mmHg 45%
    14:00 +22°C° 0 mm 3 mps 760 mmHg 47%
    15:00 +21°C° 0 mm 3 mps 760 mmHg 48%
    16:00 +21°C° 0 mm 3 mps 760 mmHg 50%
    17:00 +19°C° 0 mm 3 mps 760 mmHg 55%
    18:00 +18°C° 0 mm 3 mps 760 mmHg 60%
    19:00 +16°C° 0 mm 3 mps 759 mmHg 66%
    20:00 +14°C° 0 mm 3 mps 759 mmHg 67%
    21:00 +14°C° 0 mm 3 mps 760 mmHg 69%
    22:00 +13°C° 0 mm 3 mps 760 mmHg 71%
    23:00 +13°C° 0 mm 3 mps 760 mmHg 73%
    Show more